| time (UTC) | temp F | wind direction | speed knots | gust knots | rain 1hr in | rain 24hr in | rain mn in | humidity % | barometer mb |
| 20260505011558 | 53 | 194 | 3.5 | 10.4 | 0.00 | 0.00 | 0.00 | 77 | 1006.5 |
| 20260505011058 | 53 | 196 | 2.6 | 11.3 | 0.00 | 0.00 | 0.00 | 77 | 1006.4 |
| 20260505010554 | 53 | 196 | 1.7 | 11.3 | 0.00 | 0.00 | 0.00 | 77 | 1006.4 |
| 20260505010046 | 53 | 163 | 0.9 | 7.8 | 0.00 | 0.00 | 0.00 | 78 | 1006.3 |
| 20260505005805 | 53 | 161 | 0.9 | 6.1 | 0.00 | 0.00 | 0.00 | 77 | 1006.2 |
| 20260505005034 | 52 | 175 | 1.7 | 6.1 | 0.00 | 0.00 | 0.00 | 78 | 1006.1 |
| 20260505004528 | 52 | 194 | 2.6 | 9.6 | 0.00 | 0.00 | 0.00 | 78 | 1006.0 |
| 20260505004034 | 52 | 155 | 2.6 | 9.6 | 0.00 | 0.00 | 0.00 | 78 | 1006.0 |
| 20260505003520 | 52 | 174 | 1.7 | 6.1 | 0.00 | 0.00 | 0.00 | 78 | 1005.9 |
| 20260505003022 | 52 | 180 | 1.7 | 6.1 | 0.00 | 0.00 | 0.00 | 77 | 1005.8 |
| 20260505002746 | 52 | 176 | 1.7 | 6.1 | 0.00 | 0.00 | 0.00 | 77 | 1005.8 |
| 20260505002030 | 52 | 184 | 0.9 | 5.2 | 0.00 | 0.00 | 0.00 | 78 | 1005.7 |
| 20260505001518 | 52 | 184 | 0.9 | 4.3 | 0.00 | 0.00 | 0.00 | 78 | 1005.6 |
| 20260505001031 | 52 | 184 | 2.6 | 7.0 | 0.00 | 0.00 | 0.00 | 78 | 1005.5 |
| 20260505000519 | 52 | 197 | 3.5 | 7.0 | 0.00 | 0.00 | 0.00 | 77 | 1005.4 |
| 20260505000036 | 52 | 179 | 2.6 | 7.0 | 0.00 | 0.00 | 0.00 | 77 | 1005.4 |
| 20260504235736 | 53 | 192 | 3.5 | 7.0 | 0.00 | 0.00 | 0.00 | 76 | 1005.4 |
| 20260504235023 | 53 | 184 | 3.5 | 8.7 | 0.00 | 0.00 | 0.00 | 75 | 1005.3 |
| 20260504234518 | 53 | 161 | 2.6 | 8.7 | 0.00 | 0.00 | 0.00 | 74 | 1005.3 |
| 20260504234036 | 54 | 180 | 2.6 | 7.0 | 0.00 | 0.00 | 0.00 | 73 | 1005.1 |
| 20260504233738 | 54 | 177 | 2.6 | 7.0 | 0.00 | 0.00 | 0.00 | 72 | 1005.1 |
| 20260504233025 | 55 | 177 | 2.6 | 6.1 | 0.00 | 0.00 | 0.00 | 71 | 1005.0 |
| 20260504232518 | 55 | 166 | 2.6 | 7.0 | 0.00 | 0.00 | 0.00 | 69 | 1004.9 |
| 20260504232024 | 56 | 182 | 3.5 | 9.6 | 0.00 | 0.00 | 0.00 | 68 | 1004.8 |
| 20260504231518 | 57 | 169 | 1.7 | 9.6 | 0.00 | 0.00 | 0.00 | 65 | 1004.7 |
| 20260504231022 | 58 | 143 | 0.9 | 5.2 | 0.00 | 0.00 | 0.00 | 64 | 1004.6 |
| 20260504230517 | 58 | 161 | 0.9 | 5.2 | 0.00 | 0.00 | 0.00 | 63 | 1004.5 |
| 20260504230258 | 58 | 159 | 0.9 | 5.2 | 0.00 | 0.00 | 0.00 | 63 | 1004.5 |
| 20260504225516 | 59 | 159 | 0.9 | 4.3 | 0.00 | 0.00 | 0.00 | 61 | 1004.4 |
| 20260504225026 | 59 | 164 | 0.0 | 4.3 | 0.00 | 0.00 | 0.00 | 59 | 1004.5 |
| 20260504224516 | 60 | 163 | 0.9 | 4.3 | 0.00 | 0.00 | 0.00 | 57 | 1004.4 |
| 20260504224024 | 62 | 165 | 1.7 | 4.3 | 0.00 | 0.00 | 0.00 | 54 | 1004.3 |
| 20260504223512 | 65 | 163 | 0.9 | 5.2 | 0.00 | 0.00 | 0.00 | 49 | 1004.2 |
| 20260504223235 | 68 | 153 | 0.9 | 6.1 | 0.00 | 0.00 | 0.00 | 44 | 1004.1 |
| 20260504223002 | 71 | 174 | 2.6 | 7.0 | 0.00 | 0.00 | 0.00 | 40 | 1004.1 |
| 20260504222012 | 71 | 257 | 2.6 | 11.3 | 0.00 | 0.00 | 0.00 | 34 | 1004.0 |
| 20260504221512 | 72 | 227 | 3.5 | 16.5 | 0.00 | 0.00 | 0.00 | 33 | 1004.0 |
| 20260504221012 | 73 | 272 | 4.3 | 16.5 | 0.00 | 0.00 | 0.00 | 32 | 1004.0 |
| 20260504220512 | 73 | 239 | 3.5 | 12.2 | 0.00 | 0.00 | 0.00 | 32 | 1004.0 |
| 20260504220011 | 73 | 274 | 3.5 | 9.6 | 0.00 | 0.00 | 0.00 | 32 | 1004.0 |
| 20260504215513 | 73 | 242 | 4.3 | 12.2 | 0.00 | 0.00 | 0.00 | 33 | 1003.9 |
| 20260504215008 | 73 | 229 | 3.5 | 12.2 | 0.00 | 0.00 | 0.00 | 33 | 1004.0 |
| 20260504214508 | 73 | 256 | 2.6 | 8.7 | 0.00 | 0.00 | 0.00 | 35 | 1004.0 |
| 20260504214008 | 73 | 248 | 4.3 | 9.6 | 0.00 | 0.00 | 0.00 | 33 | 1004.0 |
| 20260504213508 | 73 | 273 | 4.3 | 11.3 | 0.00 | 0.00 | 0.00 | 33 | 1004.0 |
| 20260504213008 | 73 | 230 | 5.2 | 13.9 | 0.00 | 0.00 | 0.00 | 32 | 1004.0 |
| 20260504212508 | 73 | 260 | 4.3 | 13.9 | 0.00 | 0.00 | 0.00 | 32 | 1004.0 |
| 20260504212008 | 73 | 273 | 3.5 | 12.2 | 0.00 | 0.00 | 0.00 | 32 | 1004.0 |
| 20260504211508 | 73 | 232 | 4.3 | 13.9 | 0.00 | 0.00 | 0.00 | 33 | 1004.0 |
| 20260504211008 | 73 | 262 | 4.3 | 13.9 | 0.00 | 0.00 | 0.00 | 33 | 1004.0 |
| 20260504210504 | 72 | 238 | 3.5 | 8.7 | 0.00 | 0.00 | 0.00 | 33 | 1004.0 |
| 20260504210004 | 72 | 274 | 3.5 | 8.7 | 0.00 | 0.00 | 0.00 | 33 | 1004.0 |
| 20260504205504 | 72 | 241 | 3.5 | 12.2 | 0.00 | 0.00 | 0.00 | 34 | 1003.9 |
| 20260504205006 | 72 | 255 | 5.2 | 13.0 | 0.00 | 0.00 | 0.00 | 33 | 1003.9 |
| 20260504204505 | 73 | 273 | 6.1 | 13.0 | 0.00 | 0.00 | 0.00 | 33 | 1004.0 |
| 20260504204004 | 73 | 235 | 5.2 | 13.0 | 0.00 | 0.00 | 0.00 | 34 | 1004.0 |
| 20260504203505 | 73 | 327 | 6.1 | 16.5 | 0.00 | 0.00 | 0.00 | 33 | 1003.9 |
| 20260504203004 | 72 | 236 | 6.1 | 16.5 | 0.00 | 0.00 | 0.00 | 34 | 1003.9 |
| 20260504202505 | 72 | 261 | 6.1 | 14.8 | 0.00 | 0.00 | 0.00 | 34 | 1004.0 |
| 20260504202000 | 72 | 277 | 5.2 | 13.0 | 0.00 | 0.00 | 0.00 | 34 | 1004.0 |
| 20260504201500 | 72 | 282 | 5.2 | 13.0 | 0.00 | 0.00 | 0.00 | 34 | 1004.1 |
| 20260504201000 | 72 | 281 | 5.2 | 14.8 | 0.00 | 0.00 | 0.00 | 33 | 1004.1 |
| 20260504200500 | 72 | 259 | 4.3 | 14.8 | 0.00 | 0.00 | 0.00 | 34 | 1004.1 |
| 20260504195958 | 72 | 288 | 4.3 | 12.2 | 0.00 | 0.00 | 0.00 | 35 | 1004.1 |
| 20260504195456 | 73 | 251 | 3.5 | 12.2 | 0.00 | 0.00 | 0.00 | 34 | 1004.0 |
| 20260504194957 | 73 | 292 | 4.3 | 10.4 | 0.00 | 0.00 | 0.00 | 34 | 1004.0 |
| 20260504194454 | 73 | 296 | 3.5 | 10.4 | 0.00 | 0.00 | 0.00 | 33 | 1004.1 |
| 20260504193955 | 72 | 249 | 2.6 | 8.7 | 0.00 | 0.00 | 0.00 | 37 | 1004.1 |
| 20260504193455 | 71 | 263 | 2.6 | 8.7 | 0.00 | 0.00 | 0.00 | 36 | 1004.1 |
| 20260504193216 | 71 | 247 | 1.7 | 7.0 | 0.00 | 0.00 | 0.00 | 38 | 1004.1 |
| 20260504192452 | 69 | 254 | 0.9 | 5.2 | 0.00 | 0.00 | 0.00 | 38 | 1004.2 |
| 20260504191950 | 69 | 254 | 1.7 | 7.0 | 0.00 | 0.00 | 0.00 | 39 | 1004.3 |
| 20260504191719 | 68 | 261 | 1.7 | 7.0 | 0.00 | 0.00 | 0.00 | 39 | 1004.3 |
| 20260504191207 | 68 | 274 | 3.5 | 9.6 | 0.00 | 0.00 | 0.00 | 38 | 1004.4 |
| 20260504190438 | 68 | 277 | 3.5 | 10.4 | 0.00 | 0.00 | 0.00 | 38 | 1004.5 |
| 20260504190202 | 68 | 248 | 2.6 | 10.4 | 0.00 | 0.00 | 0.00 | 37 | 1004.5 |
| 20260504185437 | 67 | 307 | 3.5 | 13.9 | 0.00 | 0.00 | 0.00 | 38 | 1004.5 |
| 20260504184934 | 68 | 263 | 5.2 | 13.9 | 0.00 | 0.00 | 0.00 | 37 | 1004.5 |
| 20260504184659 | 68 | 219 | 4.3 | 14.8 | 0.00 | 0.00 | 0.00 | 36 | 1004.5 |
| 20260504184201 | 68 | 215 | 4.3 | 14.8 | 0.00 | 0.00 | 0.00 | 36 | 1004.5 |
| 20260504183434 | 69 | 269 | 5.2 | 14.8 | 0.00 | 0.00 | 0.00 | 35 | 1004.5 |
| 20260504182935 | 69 | 246 | 5.2 | 13.0 | 0.00 | 0.00 | 0.00 | 35 | 1004.3 |
| 20260504182434 | 69 | 264 | 6.1 | 12.2 | 0.00 | 0.00 | 0.00 | 34 | 1004.3 |
| 20260504181934 | 69 | 254 | 6.1 | 13.0 | 0.00 | 0.00 | 0.00 | 35 | 1004.3 |
| 20260504181436 | 69 | 278 | 7.0 | 13.0 | 0.00 | 0.00 | 0.00 | 35 | 1004.3 |
| 20260504180947 | 69 | 336 | 6.1 | 15.6 | 0.00 | 0.00 | 0.00 | 35 | 1004.4 |
| 20260504180433 | 69 | 234 | 5.2 | 15.6 | 0.00 | 0.00 | 0.00 | 35 | 1004.3 |
| 20260504175934 | 69 | 279 | 5.2 | 13.9 | 0.00 | 0.00 | 0.00 | 35 | 1004.3 |
| 20260504175434 | 69 | 261 | 6.1 | 18.2 | 0.00 | 0.00 | 0.00 | 36 | 1004.3 |
| 20260504174930 | 68 | 260 | 6.1 | 18.2 | 0.00 | 0.00 | 0.00 | 36 | 1004.2 |
| 20260504174431 | 68 | 240 | 4.3 | 11.3 | 0.00 | 0.00 | 0.00 | 38 | 1004.2 |
| 20260504173930 | 67 | 231 | 3.5 | 7.8 | 0.00 | 0.00 | 0.00 | 45 | 1004.2 |
| 20260504173431 | 66 | 213 | 4.3 | 10.4 | 0.00 | 0.00 | 0.00 | 46 | 1004.3 |
| 20260504172925 | 66 | 252 | 5.2 | 11.3 | 0.00 | 0.00 | 0.00 | 47 | 1004.3 |
| 20260504172424 | 65 | 230 | 5.2 | 12.2 | 0.00 | 0.00 | 0.00 | 50 | 1004.3 |
| 20260504171924 | 64 | 169 | 4.3 | 12.2 | 0.00 | 0.00 | 0.00 | 48 | 1004.4 |
| 20260504171424 | 63 | 238 | 4.3 | 13.0 | 0.00 | 0.00 | 0.00 | 51 | 1004.3 |
| 20260504170924 | 62 | 244 | 6.1 | 18.2 | 0.00 | 0.00 | 0.00 | 51 | 1004.4 |
| 20260504170424 | 61 | 201 | 6.1 | 19.1 | 0.00 | 0.00 | 0.00 | 53 | 1004.5 |
| 20260504170147 | 63 | 184 | 5.2 | 19.1 | 0.00 | 0.00 | 0.00 | 51 | 1004.5 |
| 20260504160417 | 61 | 165 | 5.2 | 10.4 | 0.00 | 0.00 | 0.00 | 59 | 1005.1 |
| 20260504150305 | 59 | 185 | 4.3 | 9.6 | 0.00 | 0.00 | 0.00 | 59 | 1005.9 |
| 20260504140659 | 57 | 185 | 3.5 | 11.3 | 0.00 | 0.00 | 0.00 | 57 | 1006.9 |
| 20260504140155 | 58 | 186 | 3.5 | 8.7 | 0.00 | 0.00 | 0.00 | 57 | 1006.9 |
| 20260504130549 | 55 | 226 | 6.1 | 12.2 | 0.00 | 0.00 | 0.00 | 57 | 1007.3 |
| 20260504120225 | 52 | 251 | 3.5 | 11.3 | 0.00 | 0.00 | 0.00 | 62 | 1008.1 |
| 20260504110452 | 48 | 245 | 3.5 | 8.7 | 0.00 | 0.00 | 0.00 | 63 | 1008.0 |
| 20260504100341 | 45 | 254 | 0.0 | 4.3 | 0.00 | 0.00 | 0.00 | 66 | 1008.0 |
| 20260504081305 | 42 | 286 | 0.0 | 2.6 | 0.00 | 0.00 | 0.00 | 65 | 1007.8 |
| 20260504080812 | 42 | 286 | 0.9 | 5.2 | 0.00 | 0.00 | 0.00 | 66 | 1007.8 |
| 20260504080253 | 42 | 287 | 0.9 | 5.2 | 0.00 | 0.00 | 0.00 | 66 | 1007.7 |
| 20260504070239 | 41 | 279 | 0.9 | 5.2 | 0.00 | 0.00 | 0.00 | 66 | 1007.7 |
| 20260504050715 | 40 | 279 | 0.0 | 2.6 | 0.00 | 0.00 | 0.00 | 71 | 1007.6 |
| 20260504050213 | 40 | 279 | 0.0 | 2.6 | 0.00 | 0.00 | 0.00 | 71 | 1007.6 |
| 20260504045713 | 40 | 280 | 0.0 | 6.1 | 0.00 | 0.00 | 0.00 | 71 | 1007.6 |
| 20260504045214 | 40 | 280 | 0.0 | 6.1 | 0.00 | 0.00 | 0.00 | 71 | 1007.6 |
| 20260504044714 | 40 | 282 | 0.0 | 3.5 | 0.00 | 0.00 | 0.00 | 72 | 1007.6 |
| 20260504044214 | 39 | 252 | 0.9 | 7.0 | 0.00 | 0.00 | 0.00 | 72 | 1007.5 |
| 20260504043713 | 39 | 252 | 0.9 | 7.0 | 0.00 | 0.00 | 0.00 | 73 | 1007.5 |
| 20260504043212 | 39 | 296 | 0.0 | 1.7 | 0.00 | 0.00 | 0.00 | 73 | 1007.4 |
| 20260504042714 | 39 | 296 | 0.0 | 1.7 | 0.00 | 0.00 | 0.00 | 73 | 1007.5 |
| 20260504042209 | 39 | 296 | 0.0 | 2.6 | 0.00 | 0.00 | 0.00 | 73 | 1007.4 |
| 20260504041709 | 39 | 296 | 0.0 | 2.6 | 0.00 | 0.00 | 0.00 | 73 | 1007.4 |
| 20260504041432 | 39 | 296 | 0.0 | 2.6 | 0.00 | 0.00 | 0.00 | 74 | 1007.4 |
| 20260504040709 | 38 | 296 | 0.0 | 2.6 | 0.00 | 0.00 | 0.00 | 74 | 1007.4 |
| 20260504040427 | 38 | 297 | 0.0 | 1.7 | 0.00 | 0.00 | 0.00 | 74 | 1007.4 |
| 20260504035710 | 38 | 298 | 0.0 | 1.7 | 0.00 | 0.00 | 0.00 | 74 | 1007.3 |
| 20260504035209 | 38 | 298 | 0.0 | 1.7 | 0.00 | 0.00 | 0.00 | 74 | 1007.2 |
| 20260504034710 | 38 | 298 | 0.0 | 1.7 | 0.00 | 0.00 | 0.00 | 74 | 1007.2 |
| 20260504034207 | 38 | 298 | 0.0 | 0.0 | 0.00 | 0.00 | 0.00 | 74 | 1007.1 |
| 20260504033707 | 38 | 297 | 0.0 | 0.0 | 0.00 | 0.00 | 0.00 | 74 | 1007.2 |
| 20260504033200 | 38 | 297 | 0.0 | 0.0 | 0.00 | 0.00 | 0.00 | 74 | 1007.1 |
| 20260504032654 | 38 | 297 | 0.0 | 0.0 | 0.00 | 0.00 | 0.00 | 74 | 1007.2 |
| 20260504032148 | 38 | 297 | 0.0 | 0.0 | 0.00 | 0.00 | 0.00 | 74 | 1007.2 |
| 20260504031642 | 38 | 297 | 0.0 | 0.0 | 0.00 | 0.00 | 0.00 | 74 | 1007.1 |
| 20260504031136 | 38 | 297 | 0.0 | 0.9 | 0.00 | 0.00 | 0.00 | 73 | 1007.2 |
| 20260504030630 | 39 | 297 | 0.0 | 0.9 | 0.00 | 0.00 | 0.00 | 73 | 1007.1 |
| 20260504030124 | 39 | 297 | 0.0 | 0.0 | 0.00 | 0.00 | 0.00 | 72 | 1007.1 |
| 20260504025619 | 39 | 297 | 0.0 | 0.0 | 0.00 | 0.00 | 0.00 | 72 | 1007.1 |
| 20260504025112 | 39 | 297 | 0.0 | 0.0 | 0.00 | 0.00 | 0.00 | 71 | 1007.0 |
| 20260504024606 | 40 | 297 | 0.0 | 0.0 | 0.00 | 0.00 | 0.00 | 71 | 1007.0 |
| 20260504024101 | 40 | 297 | 0.0 | 0.0 | 0.00 | 0.00 | 0.00 | 71 | 1007.1 |
| 20260504024040 | 40 | 297 | 0.0 | 0.0 | 0.00 | 0.00 | 0.00 | 71 | 1007.0 |
| 20260504023048 | 40 | 297 | 0.0 | 0.0 | 0.00 | 0.00 | 0.00 | 70 | 1007.1 |
| 20260504022802 | 40 | 297 | 0.0 | 0.0 | 0.00 | 0.00 | 0.00 | 69 | 1007.0 |
| 20260504022036 | 41 | 297 | 0.0 | 0.0 | 0.00 | 0.00 | 0.00 | 68 | 1007.1 |
| 20260504021530 | 41 | 297 | 0.0 | 0.0 | 0.00 | 0.00 | 0.00 | 68 | 1007.1 |
| 20260504021024 | 42 | 297 | 0.0 | 0.0 | 0.00 | 0.00 | 0.00 | 67 | 1007.1 |
| 20260504021005 | 42 | 297 | 0.0 | 0.0 | 0.00 | 0.00 | 0.00 | 66 | 1007.1 |
| 20260504020011 | 43 | 297 | 0.0 | 0.0 | 0.00 | 0.00 | 0.00 | 65 | 1007.1 |
| 20260504015504 | 43 | 297 | 0.0 | 0.0 | 0.00 | 0.00 | 0.00 | 64 | 1007.1 |
| 20260504015222 | 44 | 297 | 0.0 | 0.0 | 0.00 | 0.00 | 0.00 | 63 | 1007.1 |
| 20260504014453 | 44 | 297 | 0.0 | 0.0 | 0.00 | 0.00 | 0.00 | 61 | 1007.0 |
| 20260504013946 | 44 | 297 | 0.0 | 0.0 | 0.00 | 0.00 | 0.00 | 60 | 1007.0 |
| 20260504013442 | 45 | 297 | 0.0 | 0.9 | 0.00 | 0.00 | 0.00 | 59 | 1007.0 |
| 20260504012934 | 45 | 297 | 0.0 | 4.3 | 0.00 | 0.00 | 0.00 | 58 | 1007.0 |
| 20260504012429 | 45 | 297 | 0.9 | 4.3 | 0.00 | 0.00 | 0.00 | 58 | 1006.9 |